This demonstration page uses our WeatherBlox Daily Observations layout. Learn more.

Left ArrowRight Arrow

41.55636, -103.73856

Hourly Observations for November 10, 2019

Temp ( °F °C ) Dew Point ( °F °C ) Humidity (%) Winds ( mph kmh ) Pressure ( in mb ) Visibility ( mi km ) Precip ( " mm )
5:58 pm 17:58 Clear 52 11.1 16 -9.1 23 23 SSW 6 9 30.05 1018 10 16 0.00 0.00
6:58 pm 18:58 Clear 54 12.1 16 -9.1 22 22 Calm 30.05 1018 10 16 0.00 0.00
7:58 pm 19:58 Clear 42 5.7 18 -7.7 38 38 SSW 7 11 30.07 1018 10 16 0.00 0.00
8:58 pm 20:58 Clear 42 5.6 18 -8 37 37 SSW 6 9 30.04 1017 10 16 0.00 0.00
9:58 pm 21:58 Clear 41 4.8 19 -7.4 41 41 S 5 7 30.03 1017 10 16 0.00 0.00
10:58 pm 22:58 Clear 43 5.9 18 -7.6 38 38 SE 6 9 30.02 1017 10 16 0.00 0.00
11:58 pm 23:58 Clear 38 3.3 20 -6.7 48 48 S 9 15 30.01 1016 10 16 0.00 0.00
1:58 am 01:58 Clear 42 5.6 19 -7 40 40 E 3 6 30.00 1016 10 16 0.00 0.00
2:58 am 02:58 Clear 40 4.4 19 -7.3 43 43 SSW 3 6 29.98 1015 10 16 0.00 0.00
3:58 am 03:58 Clear 34 1.3 19 -7.4 53 53 WSW 3 6 30.00 1016 10 16 0.00 0.00
4:58 am 04:58 Clear 38 3.6 18 -7.9 43 43 S 8 13 29.99 1016 10 16 0.00 0.00
5:58 am 05:58 Clear 37 2.7 19 -7.2 48 48 SW 8 13 30.02 1017 10 16 0.00 0.00
6:58 am 06:58 Sunny 37 2.8 19 -7.2 48 48 SSW 10 17 30.01 1016 10 16 0.00 0.00
7:58 am 07:58 Sunny 44 6.8 22 -5.7 41 41 Calm 30.02 1017 10 16 0.00 0.00
8:58 am 08:58 Sunny 44 6.5 21 -6.3 40 40 NE 5 7 30.04 1017 10 16 0.00 0.00
9:58 am 09:58 Sunny 51 10.7 20 -6.6 29 29 Calm 30.02 1017 10 16 0.00 0.00
10:58 am 10:58 Sunny 53 11.7 19 -7.5 26 26 W 6 9 29.99 1016 10 16 0.00 0.00
11:58 am 11:58 Sunny 57 13.7 19 -7.4 23 23 NW 12 19 29.96 1015 10 16 0.00 0.00
12:58 pm 12:58 Mostly Sunny 56 13.6 19 -7.4 23 23 NNW 15 24 29.94 1014 10 16 0.00 0.00
1:58 pm 13:58 Mostly Cloudy 52 11 22 -5.5 31 31 NE 18 30 29.95 1014 10 16 0.00 0.00
2:58 pm 14:58 Partly Cloudy 41 4.8 31 -0.5 69 69 NE 25 41 30.02 1017 10 16 0.00 0.00
3:58 pm 15:58 Mostly Cloudy with Mist and Fog 31 -0.4 29 -1.8 90 90 NE 22 35 30.12 1020 3 5 0.00 0.00
4:58 pm 16:58 Cloudy 23 -5 22 -5.8 94 94 NNE 21 33 30.24 1024 10 16 0.00 0.00

Powered by AerisWeather